Weather History for PAIL - November, 2012

Change the Weather History Date:

Friday, November 9, 2012

  Actual Average Record
Temperature  
Mean Temperature 40 °F -  
Max Temperature 43 °F 33 °F 48 °F (1979)
Min Temperature 37 °F 21 °F -11 °F (1956)
Degree Days  
Heating Degree Days 25    
Moisture  
Dew Point 38 °F    
Average Humidity 84    
Maximum Humidity 100    
Minimum Humidity 61    
Precipitation  
Precipitation 0.24 in - - ()
Sea Level Pressure  
Sea Level Pressure 29.70 in    
Wind  
Wind Speed 20 mph (East)    
Max Wind Speed 26 mph    
Max Gust Speed 37 mph    
Visibility 10 miles    
Events Rain    
Averages and records for this station are not official NWS values.
T = Trace of Precipitation, MM = Missing Value Source: NWS Daily Summary

Daily Weather History Graph

Daily Weather History Graph

Search for Another Location

Airport or City:

Trip Planner

Search our weather history database for the weather conditions in past years. The results will help you decide how hot, cold, wet, or windy it might be!

Date:

Astronomy

Nov. 09, 2012 Rise Set
Actual Time 9:02 AM AKST 5:03 PM AKST
Civil Twilight 8:15 AM AKST 5:50 PM AKST
Nautical Twilight 7:25 AM AKST 6:40 PM AKST
Astronomical Twilight 6:37 AM AKST 7:28 PM AKST
Moon 3:08 AM AKST (11/9) 3:19 PM AKST (11/9)
Length of Visible Light 9h 34m
Length of Day
8h 00m
Waning Crescent, 22% of the Moon is Illuminated
Nov 9
Waning Crescent
Nov 13
New
Nov 20
First Quarter
Nov 28
Full
Dec 6
Last Quarter

Hourly Weather History & Observations

Time (AKST) Temp. Windchill Dew Point Humidity Pressure Visibility Wind Dir Wind Speed Gust Speed Precip Events Conditions
12:53 AM 39.0 °F 28.8 °F - N/A% 29.94 in 10.0 mi East 21.9 mph 29.9 mph 0.00 in Rain Light Rain
1:53 AM 39.9 °F 30.0 °F - N/A% 29.91 in 10.0 mi East 21.9 mph 31.1 mph 0.00 in   Overcast
3:53 AM 41.0 °F 30.9 °F - N/A% 29.84 in 10.0 mi East 24.2 mph 31.1 mph N/A   Overcast
4:53 AM 41.0 °F 32.5 °F 41.0 °F 100% 29.81 in 10.0 mi East 17.3 mph 26.5 mph N/A   Mostly Cloudy
5:53 AM 42.1 °F 32.8 °F 36.0 °F 79% 29.78 in 10.0 mi East 21.9 mph 33.4 mph N/A   Overcast
6:53 AM 41.0 °F 30.7 °F 37.0 °F 86% 29.77 in 10.0 mi East 25.3 mph 31.1 mph 0.01 in Rain Light Rain
7:53 AM 42.1 °F 31.9 °F 36.0 °F 79% 29.73 in 10.0 mi East 26.5 mph 36.8 mph 0.00 in   Overcast
8:53 AM 43.0 °F 34.5 °F 37.0 °F 80% 29.74 in 10.0 mi East 19.6 mph 29.9 mph 0.00 in Rain Light Rain
9:53 AM 42.1 °F 33.3 °F 37.9 °F 85% 29.73 in 10.0 mi East 19.6 mph 28.8 mph 0.02 in Rain Light Rain
10:53 AM 42.1 °F 32.8 °F 37.9 °F 85% 29.72 in 10.0 mi East 21.9 mph 32.2 mph 0.04 in Rain Light Rain
11:53 AM 42.1 °F 33.1 °F 37.9 °F 85% 29.71 in 10.0 mi East 20.7 mph 31.1 mph 0.05 in Rain Light Rain
12:53 PM 43.0 °F 34.5 °F 37.9 °F 82% 29.70 in 10.0 mi East 19.6 mph 28.8 mph 0.00 in Rain Light Rain
1:53 PM 42.1 °F 33.6 °F 37.9 °F 85% 29.69 in 8.0 mi East 18.4 mph 26.5 mph 0.05 in Rain Rain
2:25 PM 42.8 °F 34.0 °F 37.4 °F 81% 29.67 in 8.0 mi East 20.7 mph 31.1 mph 0.05 in Rain Rain
2:53 PM 42.1 °F 33.1 °F 37.9 °F 85% 29.67 in 9.0 mi East 20.7 mph 28.8 mph 0.09 in Rain Light Rain
3:19 PM 42.8 °F 34.5 °F 37.4 °F 81% 29.65 in 10.0 mi East 18.4 mph 26.5 mph 0.04 in Rain Light Rain
3:42 PM 42.8 °F 34.0 °F 37.4 °F 81% 29.65 in 7.0 mi East 20.7 mph 26.5 mph 0.08 in Rain Light Rain
3:53 PM 42.1 °F 33.9 °F 37.9 °F 85% 29.65 in 8.0 mi East 17.3 mph 26.5 mph 0.09 in Rain Light Rain
4:06 PM 42.8 °F 34.5 °F 37.4 °F 81% 29.64 in 9.0 mi East 18.4 mph 25.3 mph 0.01 in Rain Light Rain
4:53 PM 42.1 °F 34.5 °F 37.9 °F 85% 29.64 in 10.0 mi East 15.0 mph - 0.05 in Rain Light Rain
5:53 PM 41.0 °F 33.5 °F 37.9 °F 89% 29.64 in 10.0 mi East 13.8 mph - 0.01 in Rain Light Rain
6:53 PM 41.0 °F 33.5 °F 37.9 °F 89% 29.63 in 10.0 mi East 13.8 mph - 0.02 in Rain Light Rain
7:53 PM 41.0 °F 31.9 °F 37.9 °F 89% 29.62 in 10.0 mi East 19.6 mph 27.6 mph 0.02 in Rain Light Rain
8:53 PM 41.0 °F 32.2 °F 37.9 °F 89% 29.60 in 10.0 mi East 18.4 mph 24.2 mph 0.01 in Rain Light Rain
9:53 PM 41.0 °F 33.1 °F 37.9 °F 89% 29.60 in 10.0 mi East 15.0 mph - 0.01 in Rain Light Rain
10:53 PM 39.9 °F 34.5 °F 37.9 °F 93% 29.59 in 10.0 mi ENE 8.1 mph - 0.00 in Rain Light Rain
11:53 PM 39.9 °F 33.9 °F 37.9 °F 93% 29.58 in 10.0 mi East 9.2 mph - 0.01 in Rain Light Rain